This is the latest recevied weather packets stored in our database for station/object KC1OEK-13. If no packets are shown the sender has not sent any weather packets the latest 10 day(s).
| Time | Temp. | Humidity | Pressure | Rain* | Wind** | Luminosity | Snow |
|---|---|---|---|---|---|---|---|
| 1787583920 | 24.44° C | 66% | 1016.2 hPa | 0 mm | - | 645 W/m² | - |
| 1787583616 | 23.89° C | 65% | 1016.1 hPa | 0 mm | - | 662 W/m² | - |
| 1787583314 | 23.89° C | 68% | 1016.2 hPa | 0 mm | - | 310 W/m² | - |
| 1787583008 | 23.89° C | 66% | 1016.3 hPa | 0 mm | - | 765 W/m² | - |
| 1787582703 | 23.89° C | 67% | 1016.3 hPa | 0 mm | - | 614 W/m² | - |
| 1787582399 | 23.89° C | 66% | 1016.2 hPa | 0 mm | - | 564 W/m² | - |
| 1787582094 | 23.33° C | 65% | 1016 hPa | 0 mm | - | 543 W/m² | - |
| 1787581788 | 22.78° C | 65% | 1016.2 hPa | 0 mm | - | 528 W/m² | - |
| 1787581484 | 22.78° C | 66% | 1016.2 hPa | 0 mm | - | 523 W/m² | - |
| 1787581178 | 22.78° C | 68% | 1016.1 hPa | 0 mm | - | 509 W/m² | - |
| 1787580873 | 22.78° C | 66% | 1016.1 hPa | 0 mm | - | 500 W/m² | - |
| 1787580570 | 22.78° C | 70% | 1016.1 hPa | 0 mm | - | 487 W/m² | - |
| 1787580269 | 22.22° C | 68% | 1016 hPa | 0 mm | - | 477 W/m² | - |
| 1787579964 | 22.22° C | 70% | 1016.1 hPa | 0 mm | - | 464 W/m² | - |
| 1787579659 | 21.67° C | 69% | 1015.9 hPa | 0 mm | - | 467 W/m² | - |
| 1787579354 | 21.67° C | 73% | 1015.9 hPa | 0 mm | - | 444 W/m² | - |
| 1787579049 | 21.67° C | 70% | 1015.8 hPa | 0 mm | - | 426 W/m² | - |
| 1787578745 | 21.67° C | 73% | 1015.9 hPa | 0 mm | - | 401 W/m² | - |
| 1787578440 | 21.11° C | 78% | 1016 hPa | 0 mm | - | 394 W/m² | - |
| 1787578139 | 21.11° C | 79% | 1015.9 hPa | 0 mm | - | 376 W/m² | - |
| 1787577835 | 20.56° C | 80% | 1015.9 hPa | 0 mm | - | 367 W/m² | - |
| 1787577530 | 20° C | 82% | 1016 hPa | 0 mm | - | 363 W/m² | - |
| 1787577227 | 18.89° C | 88% | 1016.1 hPa | 0 mm | - | 353 W/m² | - |
| 1787576923 | 18.33° C | 91% | 1015.9 hPa | 0 mm | - | 342 W/m² | - |
| 1787576623 | 17.78° C | 94% | 1016.1 hPa | 0 mm | - | 330 W/m² | - |
* Rain latest hour (hover to see other rain measurements)
** Current wind speed in m/s (hover to see current wind gust speed)